Regional Weather Roundup
Issued by NWS Bismarck, ND

Home | Current Version | Previous Version | Text Only | Print | Product List | Glossary On
Versions: 1 2 3 4 5 6 7 8 9 10 11 12 13 14 15 16 17 18 19 20 21 22 23 24 25 26 27 28 29 30 31 32 33 34 35 36 37 38 39 40 41 42 43 44 45 46 47 48 49 50
000
ASUS43 KBIS 180510
RWRBIS

NWR BROADCAST TEXT
NATIONAL WEATHER SERVICE BISMARCK ND
1100 PM CST FRI NOV 17 2017

NOTE: "FAIR" INDICATES FEW OR NO CLOUDS BELOW 12,000 FEET WITH NO
SIGNIFICANT WEATHER AND/OR OBSTRUCTIONS TO VISIBILITY.


CITY           SKY/WX    TMP DP  RH WIND       PRES   REMARKS
WILLISTON      CLEAR     13   8  81 N13       29.88R WCI  -2
MINOT          CLEAR     17  11  77 NW10      29.81R WCI   5
MINOT AFB      MOCLDY    15  10  79 NW13      29.81R WCI   1
BISMARCK       CLOUDY    29  26  89 SW7       29.80R
DICKINSON      CLEAR     24  23  96 W9        29.77R WCI  14
GARRISON         N/A     19  15  84 N7        29.79R WCI  10
HETTINGER ARPT MOCLDY    28  25  88 NW8       29.81R WCI  20
JAMESTOWN      CLOUDY    18  15  88 N6        29.79R WCI  10
CARRINGTON     FAIR      18  14  86 NW6       29.82R WCI   9
HAZEN          MOCLDY    19  18  93 CALM      29.80R
LINTON           N/A     21  14  73 N3        29.79R
MANDAN         MOCLDY    28  25  86 SW12      29.77F WCI  18
OAKES            N/A     23  16  74 CALM      29.79S
RUGBY            N/A     14  10  85 NW7       29.80R WCI   4
STANLEY        MOCLDY    14  10  85 N7        29.83R WCI   4
TIOGA          FAIR      10   9  92 NW3       29.84R
WATFORD CITY   FAIR      18  12  79 NE7       29.82R WCI   8
$$

CITY           SKY/WX    TMP DP  RH WIND       PRES   REMARKS
GRAND FORKS    CLOUDY    15  13  91 W6        29.82R WCI   6
GRAND FORKS AF CLOUDY    14  10  86 NW8       29.82R WCI   3
DEVILS LAKE    CLOUDY    11   9  92 NW6       29.80S WCI   1
FARGO          CLOUDY    23  16  74 N7        29.79S WCI  15
CANDO          FAIR      10  10 100 CALM      29.82R
CAVALIER       FAIR      10   9  92 W10       29.82R WCI  -3
GRAFTON        FAIR      14  12  92 W5        29.83S WCI   6
GWINNER          N/A     23  18  80 N7        29.79F WCI  15
LANGDON        FAIR      10  10 100 W7        29.78S WCI   0
ROLLA          CLOUDY    14  10  85 NW7       29.78R WCI   4
WALHALLA       FAIR      14  14 100 W7        29.81S WCI   4
$$

CITY           SKY/WX    TMP DP  RH WIND       PRES   REMARKS
ABERDEEN       CLOUDY    28  20  71 N5        29.80S
MOBRIDGE       CLOUDY    31  25  78 CALM      29.76R
BUFFALO          N/A     32  27  81 NW18      29.77R
RAPID CITY     CLOUDY    38  29  70 NW17      29.83R
GLASGOW        MOCLDY    17  14  88 NW6       29.90R WCI   9
SIDNEY         CLEAR     19  14  81 NW14      29.87R WCI   6
WOLF POINT     PTCLDY    17   9  70 NE8       29.92R WCI   7
GLENDIVE       PTCLDY    27  22  81 W6        29.85R
MILES CITY     CLOUDY    33  26  75 W3        29.89R
BAKER          MOCLDY    30  25  81 W9        29.84R
$$

CITY           SKY/WX    TMP DP  RH WIND       PRES   REMARKS
BILLINGS       CLEAR     33  19  56 W17       29.99R
GREAT FALLS    CLEAR     29  14  53 SW14      29.95R WCI  18
REGINA         CLOUDY    10   9  92 W9        29.88R WCI  -2
ESTEVAN        CLOUDY     5   0  78 NW13      29.86R WCI -12
$$





USA.gov is the U.S. government's official web portal to all federal, state and local government web resources and services.